"Pseudo-MPEC" for P110e38

Created 2020 May 27 22:07:13 UT using Find_Orb

Click here for an explanation of pseudo-MPECs

 
 Astrometry: 
     P110e38  C2020 05 156U.x]?vSwirkQWQ0xxAstrometrylredacted;'#6NS,qgxaB`_%F51
     P110e38  C2020 05 15%5Y3click3H+XTcdnaVuVeldBS[/+hereBQk[1Jpj]]mC;G_$1.?F51
     P110e38  C2020 05 15g]8xI^bE7CTforB?_gTp8Jaub.rWU26@@Uaexplanation#G_,GKF51

Station data:
(F51) Pan-STARRS 1, Haleakala  (N20.707235 W156.255910)  US/Hawaii.
   Observers N. Primak, A. Schultz, S. Watters, J. Thiel, T. Goggia. Measurer
   PS1 Science Consortium. 1.8-m Ritchey-Chrétien + CCD.

Orbital elements:  P110e38
   Perihelion 2020 May 28.159345 +/- 46.8 TT =  3:49:27 (JD 2458997.659345)
Epoch 2020 May 15.0 TT = JDT 2458984.5   Earth MOID: 0.3896   AutoNEOCP
M 356.73124620 +/- 20               (J2000 ecliptic)
n   0.24839790 +/- 0.255            Peri.  210.16745 +/- 80
a   2.50632528 +/- 1.72             Node    30.99931 +/- 48
e   0.4487943 +/- 0.256             Incl.   13.57764 +/- 7
P   3.97                   H 22.2   G  0.15   U 11.8  SR
q 1.38150077 +/- 0.337    Q 3.63114979 +/- 45.9
From 3 observations 2020 May 15 (45.0 min); mean residual 0".07
Residuals in arcseconds: 
200515 F51  .04+  .02-    200515 F51  .12-  .06+    200515 F51  .10+  .03-    

Ephemerides (geocentric):
Date (UTC) HH   RA              Dec         delta   r     elong  mag " sig PA
---- -- -- --  -------------   -----------  ------ ------ -----  --- ---- ---
2020 05 27 22  14 07 27.029   -37 23 06.21  .41554 1.3815 147.3 22.1  38d  20
2020 05 27 23  14 07 26.406   -37 24 06.55  .41564 1.3815 147.3 22.1  38d  20
2020 05 28 00  14 07 25.789   -37 25 06.84  .41574 1.3815 147.2 22.1  38d  20
2020 05 28 01  14 07 25.179   -37 26 07.06  .41584 1.3815 147.2 22.1  38d  20
2020 05 28 02  14 07 24.576   -37 27 07.23  .41595 1.3815 147.2 22.1  38d  20
2020 05 28 03  14 07 23.979   -37 28 07.34  .41605 1.3815 147.1 22.1  38d  20
2020 05 28 04  14 07 23.389   -37 29 07.40  .41615 1.3815 147.1 22.1  38d  20
2020 05 28 05  14 07 22.806   -37 30 07.40  .41626 1.3815 147.1 22.1  38d  20
2020 05 28 06  14 07 22.229   -37 31 07.34  .41636 1.3815 147.0 22.1  38d  20
2020 05 28 07  14 07 21.659   -37 32 07.22  .41646 1.3815 147.0 22.1  38d  20
2020 05 28 08  14 07 21.095   -37 33 07.05  .41657 1.3815 147.0 22.1  38d  20
2020 05 28 09  14 07 20.538   -37 34 06.82  .41667 1.3815 146.9 22.1  38d  20
2020 05 28 10  14 07 19.987   -37 35 06.54  .41678 1.3815 146.9 22.1  38d  20
2020 05 28 11  14 07 19.443   -37 36 06.20  .41688 1.3815 146.9 22.1  38d  20
2020 05 28 12  14 07 18.906   -37 37 05.80  .41699 1.3815 146.8 22.1  38d  20
2020 05 28 13  14 07 18.376   -37 38 05.34  .41709 1.3815 146.8 22.1  38d  20
2020 05 28 14  14 07 17.852   -37 39 04.83  .41720 1.3815 146.8 22.1  38d  20
2020 05 28 15  14 07 17.335   -37 40 04.26  .41730 1.3815 146.7 22.1  38d  20
2020 05 28 16  14 07 16.824   -37 41 03.63  .41741 1.3815 146.7 22.1  38d  19
2020 05 28 17  14 07 16.320   -37 42 02.95  .41752 1.3815 146.6 22.1  38d  19
2020 05 28 18  14 07 15.823   -37 43 02.21  .41762 1.3815 146.6 22.1  38d  19
2020 05 28 19  14 07 15.332   -37 44 01.42  .41773 1.3815 146.6 22.1  39d  19
2020 05 28 20  14 07 14.849   -37 45 00.56  .41784 1.3815 146.5 22.1  39d  18
2020 05 28 21  14 07 14.371   -37 45 59.65  .41794 1.3815 146.5 22.1  39d  18
2020 05 28 22  14 07 13.901   -37 46 58.69  .41805 1.3815 146.5 22.1  39d  18
2020 05 28 23  14 07 13.437   -37 47 57.66  .41816 1.3815 146.4 22.1  39d  18
2020 05 29 00  14 07 12.980   -37 48 56.59  .41827 1.3815 146.4 22.1  39d  17
2020 05 29 01  14 07 12.530   -37 49 55.45  .41837 1.3815 146.4 22.1  39d  17
2020 05 29 02  14 07 12.086   -37 50 54.26  .41848 1.3815 146.3 22.1  39d  17
2020 05 29 03  14 07 11.650   -37 51 53.01  .41859 1.3815 146.3 22.1  39d  17
2020 05 29 04  14 07 11.220   -37 52 51.70  .41870 1.3815 146.3 22.1  39d  17
2020 05 29 05  14 07 10.796   -37 53 50.34  .41881 1.3815 146.2 22.1  39d  17
2020 05 29 06  14 07 10.380   -37 54 48.92  .41891 1.3815 146.2 22.2  39d  17
2020 05 29 07  14 07 09.970   -37 55 47.45  .41902 1.3815 146.2 22.2  40d  17
2020 05 29 08  14 07 09.567   -37 56 45.91  .41913 1.3815 146.1 22.2  40d  17
2020 05 29 09  14 07 09.171   -37 57 44.33  .41924 1.3816 146.1 22.2  40d  17
2020 05 29 10  14 07 08.781   -37 58 42.68  .41935 1.3816 146.1 22.2  40d  17
2020 05 29 11  14 07 08.399   -37 59 40.98  .41946 1.3816 146.0 22.2  40d  17
2020 05 29 12  14 07 08.023   -38 00 39.22  .41957 1.3816 146.0 22.2  40d  17
2020 05 29 13  14 07 07.654   -38 01 37.41  .41968 1.3816 146.0 22.2  40d  17
2020 05 29 14  14 07 07.291   -38 02 35.54  .41979 1.3816 145.9 22.2  40d  17
2020 05 29 15  14 07 06.936   -38 03 33.61  .41990 1.3816 145.9 22.2  40d  17
2020 05 29 16  14 07 06.587   -38 04 31.63  .42001 1.3816 145.9 22.2  40d  17
2020 05 29 17  14 07 06.246   -38 05 29.59  .42012 1.3816 145.8 22.2  40d  17
2020 05 29 18  14 07 05.911   -38 06 27.49  .42024 1.3816 145.8 22.2  40d  17
2020 05 29 19  14 07 05.583   -38 07 25.34  .42035 1.3816 145.8 22.2  40d  17
2020 05 29 20  14 07 05.261   -38 08 23.13  .42046 1.3816 145.7 22.2  40d  17
2020 05 29 21  14 07 04.947   -38 09 20.86  .42057 1.3816 145.7 22.2  40d  17